Regional Weather Roundup
Issued by NWS Albany, NY

Home | Current Version | Previous Version | Text Only | Print | Product List | Glossary On
Versions: 1 2 3 4 5 6 7 8 9 10 11 12 13 14 15 16 17 18 19 20 21 22 23 24 25 26 27 28
000
ASUS41 KALY 301710
RWRALY

NEW YORK STATE HOURLY WEATHER ROUNDUP
NATIONAL WEATHER SERVICE ALBANY NY
100 PM EDT MON MAY 30 2016

NOTE: "FAIR" INDICATES FEW OR NO CLOUDS BELOW 12,000 FEET WITH NO
SIGNIFICANT WEATHER AND/OR NO OBSTRUCTIONS TO VISIBILITY.

NYZ032-033-038>043-046>054-057>066-NYZ062>081-082-084-301800-
EAST


CITY           SKY/WX    TMP DP  RH WIND       PRES   REMARKS
ALBANY         MOSUNNY   78  63  59 S12       29.92F
GLENS FALLS    SUNNY     79  65  62 S10G18    29.88F
POUGHKEEPSIE   CLOUDY    77  66  68 SW6       29.94F
MONTGOMERY     MOSUNNY   79  68  69 S9        29.95F
WHITE PLAINS   PTSUNNY   77  67  71 NW5       29.96F
ISLIP          FOG       69  67  93 S7        29.97F VSB 3/4
NEW YORK CITY  PTSUNNY   79  71  76 VRB5      29.95F
CENTRAL PARK   PTSUNNY   78  68  71 CALM      29.99F
$$

NYZ005>009-017-018-044>046-055-056-301800-
CENTRAL


CITY           SKY/WX    TMP DP  RH WIND       PRES   REMARKS
FULTON         MOSUNNY   83  63  50 W13       29.91F
SYRACUSE       MOSUNNY   81  64  56 SW10G20   29.90F
ROME           PTSUNNY   80  65  59 W9        29.91F
ELMIRA         MOSUNNY   83  61  47 SW8       29.93F
BINGHAMTON     MOSUNNY   77  61  57 SW8       29.97F
MONTICELLO     SUNNY     75  64  69 CALM      30.00F
$$

NYZ026>034-041>043-087-301800-
NORTH


CITY           SKY/WX    TMP DP  RH WIND       PRES   REMARKS
WATERTOWN      SUNNY     74  60  61 SW13      29.90R
FORT DRUM      NOT AVBL
MASSENA        SUNNY     83  60  45 SW21G26   29.81F
SARANAC LAKE   PTSUNNY   77  59  53 SW14G22   29.87F
PLATTSBURGH    MOSUNNY   79  67  66 SE18G25   29.80F
$$

NYZ001>004-010>016-019>021-085-301800-
WEST


CITY           SKY/WX    TMP DP  RH WIND       PRES   REMARKS
NIAGARA FALLS  PTSUNNY   81  60  48 SW15      29.93F
BUFFALO        MOSUNNY   74  59  59 SW16      29.96S
DUNKIRK        LGT RAIN  74  58  57 W10       29.99S
WELLSVILLE     PTSUNNY   75  58  55 NW14G20   30.03F
ROCHESTER      MOSUNNY   81  59  47 W10       29.93S
PENN YAN       MOSUNNY   81  60  48 W12       29.95F
$$

             KEY
       WCI = WIND CHILL INDEX
       VSB = VISIBILITY
       HX  = HEAT INDEX
$$




USA.gov is the U.S. government's official web portal to all federal, state and local government web resources and services.